Location: Caltech
(34.1382°N, 118.1253°W)
Time: 15:04:47
(UTC-07:00)

CZ-2C R/B - Visible Passes

Search period start: 28 May 2015 00:00
Search period end: 07 June 2015 00:00
Orbit: 705 x 908 km, 98.1° (Epoch: 27 May)

Date Brightness Start Highest point End Pass type
(mag) Time Alt. Az. Time Alt. Az. Time Alt. Az.
28 May 5.0 02:00:17 20° E 02:02:03 24° ENE 02:06:33 10° NNE visible
28 May 3.7 03:41:21 37° WSW 03:41:42 38° W 03:46:52 10° NNW visible
29 May 5.6 01:35:17 11° E 01:37:40 15° ENE 01:40:47 10° NNE visible
29 May 3.1 03:16:21 61° SW 03:16:57 66° W 03:22:35 10° NNW visible
30 May 3.3 02:51:21 59° SE 02:52:19 73° ENE 02:58:00 10° N visible
30 May 5.0 04:32:26 12° W 04:32:57 12° W 04:34:37 10° WNW visible
31 May 4.2 02:26:22 36° ESE 02:27:47 43° ENE 02:33:10 10° N visible
31 May 4.5 04:07:26 21° W 04:07:55 21° W 04:12:02 10° NW visible
01 Jun 5.0 02:01:23 21° E 02:03:20 26° ENE 02:08:01 10° NNE visible
01 Jun 3.8 03:42:27 36° WSW 03:43:01 36° W 03:48:13 10° NNW visible
02 Jun 5.6 01:36:24 12° E 01:38:57 16° ENE 01:42:22 10° NNE visible
02 Jun 3.2 03:17:28 57° SW 03:18:16 63° W 03:23:57 10° NNW visible
03 Jun 3.3 02:52:29 57° SE 02:53:38 77° ENE 02:59:24 10° N visible
03 Jun 5.1 04:33:33 11° W 04:34:17 11° W 04:35:46 10° WNW visible
04 Jun 4.1 02:27:30 36° ESE 02:29:06 45° ENE 02:34:35 10° N visible
04 Jun 4.5 04:08:35 20° W 04:09:15 21° W 04:13:20 10° NW visible
05 Jun 4.9 02:02:32 22° ESE 02:04:38 28° ENE 02:09:28 10° NNE visible
05 Jun 3.9 03:43:37 34° WSW 03:44:21 35° W 03:49:33 10° NNW visible
06 Jun 5.6 01:37:34 12° E 01:40:14 17° ENE 01:43:54 10° NNE visible
06 Jun 3.3 03:18:38 53° SW 03:19:36 61° W 03:25:19 10° NNW visible
